Regional Weather Roundup
Issued by NWS Sterling, VA

Home | Current Version | Previous Version | Text Only | Print | Product List | Glossary On
Versions: 1 2 3 4 5 6 7 8 9 10 11 12 13 14 15 16 17 18 19 20 21 22 23 24 25 26 27 28 29 30 31 32 33 34 35 36 37 38 39 40 41 42 43 44 45 46 47 48 49 50
000
ASUS41 KLWX 012010
RWRLWX

REGIONAL WEATHER ROUNDUP
NATIONAL WEATHER SERVICE BALTIMORE MD/WASHINGTON DC
400 PM EDT TUE SEP 01 2015

Note: "FAIR" indicates few or no clouds below 12,000 feet
with no significant weather and/or obstructions to visibility.
 TC=TEMPERATURE CELSIUS

 * =Non NWS site. Station does not report precipitation (e.g. rain,
    snow, etc.), thunder, or fog.

DCZ001-MDZ009-015-VAZ040>042-051-053>054-012100-
WASHINGTON METRO

CITY           SKY/WX    TMP DP  RH WIND       PRES   REMARKS
WASHINGTON NAT MOSUNNY   93  66  40 NE3       30.01F HX  96
DULLES         PTSUNNY   92  64  39 VRB6      30.03F HX  93
ANDREWS AFB    MOSUNNY   89  67  48 S7        30.01F HX  92
FT BELVOIR     MOSUNNY   92  65  39 VRB3      30.01F HX  94
QUANTICO       MOSUNNY   89  73  59 S7        30.02F HX  97
COLLEGE PARK*  SUNNY     91  61  35 W3        30.00F HX  91
LEESBURG*      SUNNY     91  70  49 NW7       30.04F HX  97
MANASSAS*      MOSUNNY   91  64  40 N5        30.02F HX  93
GAITHERSBURG*  MOSUNNY   90  66  45 NW3       30.06F HX  92

$$

MDZ006>007-011-014-012100-
BALTIMORE METRO

CITY           SKY/WX    TMP DP  RH WIND       PRES   REMARKS
BWI AIRPORT    MOSUNNY   92  65  40 VRB5      30.00F HX  94
MD SCIENCE CTR   N/A     92  66  42 MISG      30.00F HX  94
MARTIN STATE   MOSUNNY   90  73  58 SE7       30.02F HX  98
ANNAPOLIS      SUNNY     85  73  67 SE8       30.00F HX  91
FORT MEADE*    SUNNY     88  64  45 NW3       30.03F

$$

MDZ012-015-019>023-012100-
MARYLAND EASTERN SHORE

CITY           SKY/WX    TMP DP  RH WIND       PRES   REMARKS
OCEAN CITY     MOSUNNY   83  71  67 S9        30.02F
SALISBURY      PTSUNNY   88  69  53 NE10      30.00F HX  92
BAY BRIDGE AP*   N/A     88  66  48 CALM      30.01F HX  90
CAMBRIDGE*     SUNNY     91  72  52 NW6       30.01F HX  98
EASTON*        MOSUNNY   91  70  49 N7        30.04F HX  97

$$

MDZ017>025-012100-
SOUTHERN MARYLAND

CITY           SKY/WX    TMP DP  RH WIND       PRES   REMARKS
PATUXENT RIVER MOSUNNY   86  71  60 E6        30.02F HX  91
ST INIGOES     SUNNY     88  68  51 S5        30.01F HX  91
LEONARDTOWN*   NOT AVBL

$$

MDZ003>005-012100-
NORTH CENTRAL MARYLAND

CITY           SKY/WX    TMP DP  RH WIND       PRES   REMARKS
FREDERICK*     MOSUNNY   93  66  40 VRB5      30.05F HX  96
HAGERSTOWN APT MOSUNNY   92  60  34 W9        30.03F HX  91
WESTMINSTER*   MOSUNNY   91  61  35 NW7       30.05S HX  91

$$

MDZ501>502-012100-
WESTERN MARYLAND

CITY           SKY/WX    TMP DP  RH WIND       PRES   REMARKS
OAKLAND*       MOSUNNY   79  61  53 N3        30.20S
CUMBERLAND*    SUNNY     90  61  37 W3        30.09S

$$

VAZ025>031-012100-
SHENANDOAH VALLEY

CITY           SKY/WX    TMP DP  RH WIND       PRES   REMARKS
WINCHESTER*    MOSUNNY   91  59  33 W12       30.04F HX  90
FRONT ROYAL*   FAIR      90  64  43 E5        30.04F HX  91
LURAY*         FAIR      90  59  35 CALM      30.05F
NEW MARKET*    MOCLDY    90  61  38 N3        30.03F HX  90
STAUNTON*      MOSUNNY   91  63  39 S7        30.11S HX  91
WAYNESBORO*    CLOUDY    81  71  71 CALM      30.11F

$$

WVZ021-048>050-054>055-012100-
EASTERN WEST VIRGINIA PANHANDLE

CITY           SKY/WX    TMP DP  RH WIND       PRES   REMARKS
MARTINSBURG    SUNNY     89  63  41 VRB5      30.04F HX  90
PETERSBURG*    PTSUNNY   89  67  46 CALM      30.07F HX  92

$$

VAZ036>039-050-012100-
CENTRAL FOOTHILLS

CITY           SKY/WX    TMP DP  RH WIND       PRES   REMARKS
CHARLOTTESVILL SUNNY     90  66  45 NE3       30.06F HX  92
CULPEPER*      SUNNY     89  66  45 CALM      30.04F HX  91
ORANGE*        CLOUDY    90  63  40 CALM      30.05F HX  90
GORDONSVILLE*  CLOUDY    87  71  59 CALM      30.04F HX  92
WARRENTON*     FAIR      93  67  42 N5        30.03F HX  96

$$

VAZ055>057-012100-
NORTH AND CENTRAL PIEDMONT

CITY           SKY/WX    TMP DP  RH WIND       PRES   REMARKS
FREDERICKSBRG* SUNNY     94  63  36 NW7       30.01F HX  95
STAFFORD*      SUNNY     92  62  36 W7        30.06F HX  93

$$

NCZ024-NYZ072-PAZ021-071-VAZ022-071-012100-
OTHER REGIONAL OBSERVATIONS

CITY           SKY/WX    TMP DP  RH WIND       PRES   REMARKS
NEW YORK CITY  MOSUNNY   86  63  45 S8        30.04F
PHILADELPHIA   MOSUNNY   93  59  31 VRB5      29.99F HX  92
PITTSBURGH     MOSUNNY   88  63  43 SW6       30.09F
ROANOKE        PTSUNNY   88  62  41 E7        30.10F
RICHMOND       MOSUNNY   92  67  43 VRB6      30.03F HX  95
RALEIGH        MOSUNNY   86  67  52 CALM      30.06F

$$

ANZ530>537-012100-
MARINE OBSERVATIONS

STATION/POSITION TIME  TEMP    WIND        PRES
                       AIR SEA DIR/SP/G
                 (UTC) (F)     (DEG/KT/KT) (MB)
THOMAS PT LIGHT  1900   81 81  180/  4/  4 1017.3
BALT KEY BRIDGE  1900   83     120/  7/  8 1016.5F
COVE POINT       1900   81      90/  1/  2 1017.8F
LEWISETTA        1900   79 79   90/  5/  6 1016.7F
SOLOMONS ISLAND  1900      82                N/A
PINEY POINT      1905          150/  2/  3   N/A

$$




USA.gov is the U.S. government's official web portal to all federal, state and local government web resources and services.